DW7126 Lourinha PT current weather conditions

sailwx.info

Wind from 103

Air temperature 7.8° C
Dewpoint 7.2° C

Last reported at 2014-Dec-21 08:55 UTC.
Time now 2014-Dec-21 09:56 UTC

Location: N 39°14' W 009°18'.
View on Google Maps.

See reports from other nearby stations

  
Tides and Currents Weather Stations Pressure Air Temp Water Temp Dewpoint Dewpoint Depression Visibility Wind Speed Wind Dir Waves Ship Positions
date/time (UTC)wind fromknots sea level pressurealtimeterstation pressurevisibilityair tempwater tempwave heightnotes
2014-Dec-21 08:55 103 7.8
2014-Dec-21 08:50 111 6.7
2014-Dec-21 08:45 106 6.1
2014-Dec-21 08:40 104 6.7
2014-Dec-21 08:35 108 0 gusting 2 6.1
2014-Dec-21 08:30 091 5.6
2014-Dec-21 08:25 090 5.6
2014-Dec-21 08:20 090 5.6
2014-Dec-21 08:15 089 5.6
2014-Dec-21 08:10 088 5.6
2014-Dec-21 08:05 085 6.1
2014-Dec-21 08:00 085 6.1
2014-Dec-21 07:55 095 6.1
2014-Dec-21 07:50 090 6.1
2014-Dec-21 07:45 090 5.6
2014-Dec-21 07:40 090 6.1
2014-Dec-21 07:35 090 6.7
2014-Dec-21 07:30 090 6.1
2014-Dec-21 07:25 090 6.1
2014-Dec-21 07:20 090 6.7
2014-Dec-21 07:15 090 6.7
2014-Dec-21 07:10 090 6.7
2014-Dec-21 07:05 090 6.7
2014-Dec-21 07:00 090 7.2
2014-Dec-21 06:55 090 7.2
2014-Dec-21 06:50 090 6.7
2014-Dec-21 06:45 090 6.1
2014-Dec-21 06:40 090 6.1
2014-Dec-21 06:35 090 6.1
2014-Dec-21 06:30 090 6.1
2014-Dec-21 06:25 090 6.1
2014-Dec-21 06:20 090 6.1
2014-Dec-21 06:15 090 6.1
2014-Dec-21 06:10 092 6.1
2014-Dec-21 06:05 092 7.2
2014-Dec-21 06:00 095 7.8
2014-Dec-21 05:55 096 7.8
2014-Dec-21 05:50 065 7.2
2014-Dec-21 05:45 060 1 gusting 6 8.3
2014-Dec-21 05:40 061 4 gusting 6 8.3
2014-Dec-21 05:35 075 2 gusting 4 8.3
2014-Dec-21 05:30 070 8.3
2014-Dec-21 05:25 071 2 gusting 4 8.3
2014-Dec-21 05:20 068 0 gusting 4 8.3
2014-Dec-21 05:15 075 0 gusting 4 8.3
2014-Dec-21 05:10 068 1 gusting 4 8.3
2014-Dec-21 05:05 066 2 gusting 4 8.3
2014-Dec-21 05:00 057 8.9
2014-Dec-21 04:55 062 8.9
2014-Dec-21 04:50 077 8.3
2014-Dec-21 04:45 075 8.3
2014-Dec-21 04:40 074 0 gusting 6 8.3
2014-Dec-21 04:35 079 1 gusting 6 8.3
2014-Dec-21 04:30 059 2 gusting 6 8.3
2014-Dec-21 04:25 061 2 gusting 6 8.3
2014-Dec-21 04:20 078 1 gusting 4 8.3
2014-Dec-21 04:15 074 1 gusting 4 8.3
2014-Dec-21 04:10 085 1 gusting 4 8.9
2014-Dec-21 04:05 075 8.9
2014-Dec-21 04:00 075 8.9
2014-Dec-21 03:55 086 1 gusting 4 8.9
2014-Dec-21 03:50 082 8.9
2014-Dec-21 03:45 090 8.9
2014-Dec-21 03:40 071 9.4
2014-Dec-21 03:35 049 0 gusting 6 9.4
2014-Dec-21 03:30 065 0 gusting 4 9.4
2014-Dec-21 03:25 057 0 gusting 6 9.4
2014-Dec-21 03:20 069 4 gusting 6 9.4
2014-Dec-21 03:15 059 2 gusting 6 9.4
2014-Dec-21 03:10 063 4 gusting 6 9.4
2014-Dec-21 03:05 066 3 gusting 6 9.4
2014-Dec-21 03:00 061 1 gusting 5 10.0
2014-Dec-21 02:55 071 3 gusting 5 10.0
2014-Dec-21 02:50 062 3 gusting 6 10.0
2014-Dec-21 02:45 063 2 gusting 5 10.0
2014-Dec-21 02:40 058 3 gusting 5 10.0
2014-Dec-21 02:35 064 3 gusting 5 10.0
2014-Dec-21 02:30 057 3 gusting 6 10.0
2014-Dec-21 02:25 043 5 gusting 6 10.0
2014-Dec-21 02:20 061 3 gusting 6 10.0
2014-Dec-21 02:15 061 2 gusting 8 10.0
2014-Dec-21 02:10 059 6 gusting 8 10.0
2014-Dec-21 02:05 070 2 gusting 6 10.0
2014-Dec-21 02:00 071 3 gusting 6 10.0
2014-Dec-21 01:55 077 3 gusting 6 10.0
2014-Dec-21 01:50 067 3 gusting 6 10.0
2014-Dec-21 01:45 080 0 gusting 4 10.0
2014-Dec-21 01:40 080 10.0
2014-Dec-21 01:35 066 10.0
2014-Dec-21 01:30 052 0 gusting 6 10.0
2014-Dec-21 01:25 059 1 gusting 6 10.0
2014-Dec-21 01:20 066 4 gusting 6 10.0
2014-Dec-21 01:15 070 5 gusting 7 10.0
2014-Dec-21 01:10 063 4 gusting 7 10.0
2014-Dec-21 01:05 063 2 gusting 6 10.0
2014-Dec-21 01:00 097 3 gusting 7 10.0
2014-Dec-21 00:55 075 5 gusting 7 10.6
2014-Dec-21 00:50 087 2 gusting 4 10.6
2014-Dec-21 00:45 077 2 gusting 4 10.6
2014-Dec-21 00:40 078 2 gusting 4 10.6
2014-Dec-21 00:35 073 1 gusting 4 10.6
2014-Dec-21 00:30 053 1 gusting 6 10.6
2014-Dec-21 00:25 063 1 gusting 6 10.6
2014-Dec-21 00:20 055 4 gusting 6 10.6
2014-Dec-21 00:15 052 4 gusting 6 10.6
2014-Dec-21 00:10 059 4 gusting 6 10.6
2014-Dec-21 00:05 057 3 gusting 6 10.0
2014-Dec-21 00:00 074 2 gusting 4 10.0
2014-Dec-20 23:55 072 10.0
2014-Dec-20 23:45 057 10.0
2014-Dec-20 23:40 059 0 gusting 4 10.0
2014-Dec-20 23:35 058 10.0
2014-Dec-20 23:30 061 2 gusting 5 10.0
2014-Dec-20 23:25 052 4 gusting 6 10.0
2014-Dec-20 23:20 068 3 gusting 6 10.0
2014-Dec-20 23:15 055 2 gusting 4 10.0
2014-Dec-20 23:10 048 10.0
2014-Dec-20 23:05 048 0 gusting 7 10.0
2014-Dec-20 23:00 041 1 gusting 7 10.6
2014-Dec-20 22:55 033 0 gusting 6 10.6
2014-Dec-20 22:50 049 1 gusting 3 10.0
2014-Dec-20 22:45 049 0 gusting 2 10.0
2014-Dec-20 22:40 049 10.0
2014-Dec-20 22:35 049 10.6
2014-Dec-20 22:30 049 1 gusting 4 10.6
2014-Dec-20 22:25 053 0 gusting 6 10.6
2014-Dec-20 22:20 049 3 gusting 6 10.6
2014-Dec-20 22:15 042 2 gusting 5 10.6
2014-Dec-20 22:10 059 1 gusting 4 10.6
2014-Dec-20 22:05 038 10.6
2014-Dec-20 22:00 020 10.6
2014-Dec-20 21:55 022 10.6
2014-Dec-20 21:50 023 2 gusting 7 10.6
2014-Dec-20 21:45 035 1 gusting 5 10.6
2014-Dec-20 21:40 064 2 gusting 4 10.6
2014-Dec-20 21:35 075 2 gusting 4 10.6
2014-Dec-20 21:30 076 10.6
2014-Dec-20 21:25 076 0 gusting 3 10.6
2014-Dec-20 21:20 075 2 gusting 4 10.6
2014-Dec-20 21:15 071 1 gusting 4 10.6
2014-Dec-20 21:10 057 1 gusting 4 10.6
2014-Dec-20 21:05 054 2 gusting 4 10.6
2014-Dec-20 21:00 053 2 gusting 4 10.6
2014-Dec-20 20:55 053 2 gusting 4 10.6
2014-Dec-20 20:50 049 0 gusting 3 11.1
2014-Dec-20 20:45 046 11.1
2014-Dec-20 20:40 041 11.1
2014-Dec-20 20:35 034 11.1
2014-Dec-20 20:30 034 11.1
2014-Dec-20 20:25 034 11.1
2014-Dec-20 20:20 040 0 gusting 4 11.1
2014-Dec-20 20:15 046 11.1
2014-Dec-20 20:10 046 11.7
2014-Dec-20 20:05 046 11.7
2014-Dec-20 20:00 046 11.7
2014-Dec-20 19:55 046 11.7
2014-Dec-20 19:50 046 11.7
2014-Dec-20 19:45 034 4 gusting 10 11.7
2014-Dec-20 19:40 042 5 gusting 10 11.7
2014-Dec-20 19:35 031 5 gusting 13 11.7
2014-Dec-20 19:30 049 5 gusting 13 12.2
2014-Dec-20 19:25 022 6 gusting 11 12.2
2014-Dec-20 19:20 030 6 gusting 10 12.2
2014-Dec-20 19:15 021 5 gusting 12 12.2
2014-Dec-20 19:10 011 7 gusting 12 12.2
2014-Dec-20 19:05 028 5 gusting 9 12.2
2014-Dec-20 19:00 027 6 gusting 10 12.2
2014-Dec-20 18:55 015 6 gusting 10 12.2
2014-Dec-20 18:50 024 6 gusting 11 12.2
2014-Dec-20 18:45 027 7 gusting 13 12.2
2014-Dec-20 18:40 040 6 gusting 12 12.2
2014-Dec-20 18:35 036 7 gusting 13 12.2
2014-Dec-20 18:30 024 9 gusting 13 12.2
2014-Dec-20 18:25 030 6 gusting 10 12.2
2014-Dec-20 18:20 033 7 gusting 12 12.2
2014-Dec-20 18:15 025 6 gusting 12 12.2
2014-Dec-20 18:10 013 7 gusting 15 12.2
2014-Dec-20 18:05 050 8 gusting 15 12.2
2014-Dec-20 18:00 030 10 gusting 15 12.2
2014-Dec-20 17:55 032 7 gusting 13 11.7
2014-Dec-20 17:50 013 8 gusting 14 11.7
2014-Dec-20 17:45 026 8 gusting 17 11.7
2014-Dec-20 17:40 019 11 gusting 16 11.7
2014-Dec-20 17:35 027 10 gusting 18 11.7
2014-Dec-20 17:30 015 10 gusting 15 11.7
2014-Dec-20 17:25 036 9 gusting 15 11.7
2014-Dec-20 17:20 034 8 gusting 15 11.7
2014-Dec-20 17:15 034 11 gusting 15 11.7
2014-Dec-20 17:10 025 8 gusting 14 11.7
2014-Dec-20 17:05 031 10 gusting 16 11.7
2014-Dec-20 17:00 024 10 gusting 16 11.7
2014-Dec-20 16:55 011 7 gusting 17 11.7
2014-Dec-20 16:50 024 12 gusting 18 11.7
2014-Dec-20 16:45 024 13 gusting 18 11.7
2014-Dec-20 16:40 041 8 gusting 17 12.2
2014-Dec-20 16:35 042 10 gusting 19 12.2
2014-Dec-20 16:30 014 13 gusting 19 12.2
2014-Dec-20 16:25 025 10 gusting 16 12.2
2014-Dec-20 16:20 027 10 gusting 17 12.2
2014-Dec-20 16:15 036 13 gusting 17 12.2
2014-Dec-20 16:10 033 13 gusting 17 12.2
2014-Dec-20 16:05 005 11 gusting 17 12.2
2014-Dec-20 16:00 040 11 gusting 17 12.2
2014-Dec-20 15:55 020 9 gusting 15 12.2
2014-Dec-20 15:50 022 11 gusting 19 12.2
2014-Dec-20 15:45 031 12 gusting 19 12.2
2014-Dec-20 15:40 022 11 gusting 20 12.2
2014-Dec-20 15:35 005 14 gusting 20 12.2
2014-Dec-20 15:30 013 8 gusting 21 12.2
2014-Dec-20 15:25 011 12 gusting 23 12.2
2014-Dec-20 15:20 022 15 gusting 23 12.2
2014-Dec-20 15:15 012 12 gusting 20 12.2
2014-Dec-20 15:10 035 13 gusting 20 12.2
2014-Dec-20 15:05 028 14 gusting 19 12.8
2014-Dec-20 15:00 016 10 gusting 17 12.8
2014-Dec-20 14:55 024 11 gusting 18 12.8
2014-Dec-20 14:50 022 13 gusting 21 12.8
2014-Dec-20 14:45 026 13 gusting 25 12.8
2014-Dec-20 14:40 029 10 gusting 17 12.8
2014-Dec-20 14:35 025 10 gusting 16 12.8
2014-Dec-20 14:30 029 11 gusting 16 12.8
2014-Dec-20 14:25 025 9 gusting 15 12.8
2014-Dec-20 14:20 022 11 gusting 15 12.2
2014-Dec-20 14:15 026 8 gusting 19 12.8
2014-Dec-20 14:10 011 13 gusting 19 12.2
2014-Dec-20 14:05 019 10 gusting 17 12.8
2014-Dec-20 14:00 031 10 gusting 17 12.2
2014-Dec-20 13:55 019 12 gusting 19 12.2
2014-Dec-20 13:50 019 14 gusting 19 12.8
2014-Dec-20 13:45 020 13 gusting 19 12.8
2014-Dec-20 13:40 005 10 gusting 19 12.8
2014-Dec-20 13:35 005 12 gusting 19 13.3
2014-Dec-20 13:30 034 9 gusting 15 13.3
2014-Dec-20 13:25 027 9 gusting 19 13.3
2014-Dec-20 13:20 032 12 gusting 19 12.8
2014-Dec-20 13:15 013 10 gusting 17 13.3
2014-Dec-20 13:10 016 12 gusting 17 13.3
2014-Dec-20 13:05 034 11 gusting 15 13.3
2014-Dec-20 13:00 035 10 gusting 16 13.3
2014-Dec-20 12:55 019 9 gusting 19 13.3
2014-Dec-20 12:50 032 13 gusting 20 12.8
2014-Dec-20 12:45 048 12 gusting 20 12.8
2014-Dec-20 12:40 062 9 gusting 17 12.8
2014-Dec-20 12:35 046 9 gusting 17 13.3
2014-Dec-20 12:30 019 13 gusting 17 13.3
2014-Dec-20 12:25 016 10 gusting 15 13.3
2014-Dec-20 12:20 036 6 gusting 14 13.3
2014-Dec-20 12:15 005 7 gusting 13 13.3
2014-Dec-20 12:10 036 10 gusting 13 12.8
2014-Dec-20 12:05 032 7 gusting 12 12.8
2014-Dec-20 12:00 032 6 gusting 14 12.8
2014-Dec-20 11:55 016 8 gusting 17 12.2
2014-Dec-20 11:50 028 9 gusting 17 12.2
2014-Dec-20 11:45 026 11 gusting 17 12.2
2014-Dec-20 11:40 034 8 gusting 17 11.7
2014-Dec-20 11:35 018 8 gusting 18 11.7
2014-Dec-20 11:30 039 9 gusting 18 11.7
2014-Dec-20 11:25 088 7 gusting 13 11.1
2014-Dec-20 11:20 046 6 gusting 19 11.1
2014-Dec-20 11:15 028 11 gusting 22 11.1
2014-Dec-20 11:10 058 12 gusting 19 11.1
2014-Dec-20 11:05 061 10 gusting 19 11.1
2014-Dec-20 11:00 050 8 gusting 18 11.1
2014-Dec-20 10:55 059 10 gusting 17 10.6
2014-Dec-20 10:50 019 8 gusting 17 10.0
2014-Dec-20 10:45 050 13 gusting 19 10.0
2014-Dec-20 10:40 013 10 gusting 19 10.0
2014-Dec-20 10:35 065 9 gusting 18 9.4
2014-Dec-20 10:30 028 8 gusting 18 9.4
2014-Dec-20 10:25 051 9 gusting 16 9.4
2014-Dec-20 10:20 051 12 gusting 19 9.4
2014-Dec-20 10:15 051 12 gusting 18 9.4
2014-Dec-20 10:10 053 10 gusting 18 9.4
2014-Dec-20 10:05 055 11 gusting 19 9.4
2014-Dec-20 10:00 027 10 gusting 19 9.4
2014-Dec-20 09:55 030 12 gusting 19 9.4
2014-Dec-20 09:50 032 7 gusting 14 9.4
2014-Dec-20 09:45 071 7 gusting 14 9.4
2014-Dec-20 09:40 065 9 gusting 15 9.4
2014-Dec-20 09:35 060 6 gusting 13 9.4
2014-Dec-20 09:30 061 7 gusting 13 8.9
2014-Dec-20 09:25 071 7 gusting 13 8.9
2014-Dec-20 09:20 041 8 gusting 13 8.9
2014-Dec-20 09:15 055 7 gusting 13 8.9
2014-Dec-20 09:10 075 8 gusting 14 8.9
2014-Dec-20 09:05 055 8 gusting 14 8.9
2014-Dec-20 09:00 044 7 gusting 15 8.9
2014-Dec-20 08:55 041 8 gusting 15 8.9
2014-Dec-20 08:50 017 10 gusting 14 8.3
2014-Dec-20 08:45 040 8 gusting 11 8.3
2014-Dec-20 08:40 041 7 gusting 13 8.3
2014-Dec-20 08:35 028 7 gusting 12 8.3
2014-Dec-20 08:30 075 7 gusting 11 7.8
2014-Dec-20 08:25 055 6 gusting 10 7.8
2014-Dec-20 08:20 055 6 gusting 8 7.8
2014-Dec-20 08:15 030 6 gusting 11 7.8
2014-Dec-20 08:10 063 6 gusting 11 7.2
2014-Dec-20 08:05 052 6 gusting 9 7.2
2014-Dec-20 08:00 065 4 gusting 7 7.2
2014-Dec-20 07:55 051 6 gusting 7 7.2
2014-Dec-20 07:50 056 6 gusting 8 6.7
2014-Dec-20 07:45 061 5 gusting 6 6.7
2014-Dec-20 07:40 063 4 gusting 6 6.1
2014-Dec-20 07:35 059 3 gusting 6 6.1
2014-Dec-20 07:30 060 4 gusting 6 6.1
2014-Dec-20 07:25 061 5 gusting 6 6.1
2014-Dec-20 07:20 063 3 gusting 6 6.1
2014-Dec-20 07:15 067 2 gusting 6 6.1
2014-Dec-20 07:10 060 0 gusting 4 6.1
2014-Dec-20 07:05 061 2 gusting 6 6.7
2014-Dec-20 07:00 049 3 gusting 6 6.7
2014-Dec-20 06:55 067 2 gusting 5 6.7
2014-Dec-20 06:50 069 0 gusting 5 6.7
2014-Dec-20 06:45 067 2 gusting 5 6.7
2014-Dec-20 06:40 059 3 gusting 5 6.7
2014-Dec-20 06:35 064 2 gusting 6 6.7
2014-Dec-20 06:30 064 2 gusting 6 6.7
2014-Dec-20 06:25 065 2 gusting 6 6.1
2014-Dec-20 06:20 067 3 gusting 6 6.1
2014-Dec-20 06:15 063 3 gusting 6 6.1
2014-Dec-20 06:10 067 1 gusting 4 6.1
2014-Dec-20 06:05 063 1 gusting 4 6.1
2014-Dec-20 06:00 061 2 gusting 5 6.1
2014-Dec-20 05:55 059 2 gusting 5 6.1
2014-Dec-20 05:50 073 6.1
2014-Dec-20 05:45 065 6.7
2014-Dec-20 05:40 065 6.7
2014-Dec-20 05:35 064 6.7
2014-Dec-20 05:30 065 1 gusting 4 6.7
2014-Dec-20 05:25 071 6.7
2014-Dec-20 05:20 071 0 gusting 3 7.2
2014-Dec-20 05:15 073 7.2
2014-Dec-20 05:10 069 0 gusting 3 7.2
2014-Dec-20 05:05 068 7.2
2014-Dec-20 05:00 068 7.2
2014-Dec-20 04:55 078 7.2
2014-Dec-20 04:50 079 0 gusting 5 7.8
2014-Dec-20 04:45 080 1 gusting 5 7.8
2014-Dec-20 04:40 080 7.8
2014-Dec-20 04:35 082 7.8
2014-Dec-20 04:30 082 0 gusting 3 7.8
2014-Dec-20 04:25 071 7.8
2014-Dec-20 04:20 068 7.8
2014-Dec-20 04:15 067 7.8
2014-Dec-20 04:10 066 7.8
2014-Dec-20 04:05 066 8.3
2014-Dec-20 04:00 081 7.8
2014-Dec-20 03:55 085 7.8
2014-Dec-20 03:50 069 0 gusting 6 8.3
2014-Dec-20 03:45 103 2 gusting 6 8.3
2014-Dec-20 03:40 082 2 gusting 6 8.3
2014-Dec-20 03:35 076 8.3
2014-Dec-20 03:30 075 0 gusting 6 8.3
2014-Dec-20 03:25 076 4 gusting 6 8.3
2014-Dec-20 03:20 078 1 gusting 6 8.3
2014-Dec-20 03:15 070 0 gusting 6 8.3
2014-Dec-20 03:10 066 3 gusting 6 8.3
2014-Dec-20 03:05 058 0 gusting 6 8.9
2014-Dec-20 03:00 070 3 gusting 6 8.9
2014-Dec-20 02:55 054 3 gusting 5 8.9
2014-Dec-20 02:50 055 1 gusting 5 8.9
2014-Dec-20 02:45 046 8.9
2014-Dec-20 02:40 050 1 gusting 4 8.9
2014-Dec-20 02:35 048 1 gusting 5 9.4
2014-Dec-20 02:30 055 3 gusting 6 9.4
2014-Dec-20 02:25 060 2 gusting 6 9.4
2014-Dec-20 02:20 061 3 gusting 6 8.9
2014-Dec-20 02:15 039 3 gusting 6 9.4
2014-Dec-20 02:10 052 4 gusting 6 9.4
2014-Dec-20 02:05 055 3 gusting 6 9.4
2014-Dec-20 02:00 057 3 gusting 6 9.4
2014-Dec-20 01:55 057 4 gusting 6 9.4
2014-Dec-20 01:50 058 3 gusting 6 9.4
2014-Dec-20 01:45 061 3 gusting 6 10.0
2014-Dec-20 01:40 055 2 gusting 6 10.0
2014-Dec-20 01:35 062 2 gusting 6 10.0
2014-Dec-20 01:30 032 0 gusting 6 10.0
2014-Dec-20 01:25 053 2 gusting 7 10.0
2014-Dec-20 01:20 055 2 gusting 7 10.0
2014-Dec-20 01:15 024 4 gusting 7 10.6
2014-Dec-20 01:10 051 5 gusting 7 10.6
2014-Dec-20 01:05 053 3 gusting 6 10.6
2014-Dec-20 01:00 053 1 gusting 8 10.6
2014-Dec-20 00:55 059 4 gusting 8 10.6
2014-Dec-20 00:50 049 5 gusting 7 10.6
2014-Dec-20 00:45 061 6 gusting 8 10.6
2014-Dec-20 00:40 047 4 gusting 8 11.1
2014-Dec-20 00:35 057 5 gusting 11 11.1
2014-Dec-20 00:30 051 5 gusting 11 11.1
2014-Dec-20 00:25 052 5 gusting 8 11.1
2014-Dec-20 00:20 044 4 gusting 9 11.1
2014-Dec-20 00:15 054 6 gusting 10 11.1
2014-Dec-20 00:10 049 6 gusting 10 11.1
2014-Dec-20 00:05 053 4 gusting 9 11.1
2014-Dec-20 00:00 060 2 gusting 6 11.1
2014-Dec-19 23:55 052 3 gusting 12 11.1
2014-Dec-19 23:50 044 6 gusting 12 11.1
2014-Dec-19 23:45 059 3 gusting 12 11.1
2014-Dec-19 23:40 045 3 gusting 12 11.1
2014-Dec-19 23:35 055 5 gusting 8 11.1
2014-Dec-19 23:30 037 4 gusting 12 11.1
2014-Dec-19 23:25 017 6 gusting 13 11.1
2014-Dec-19 23:20 028 7 gusting 13 11.1
2014-Dec-19 23:15 037 6 gusting 15 11.1
2014-Dec-19 23:10 016 7 gusting 19 11.1
2014-Dec-19 23:05 032 13 gusting 19 11.1
2014-Dec-19 23:00 019 9 gusting 14 11.1
2014-Dec-19 22:55 039 6 gusting 13 11.1
2014-Dec-19 22:50 032 8 gusting 14 11.1
2014-Dec-19 22:45 037 9 gusting 15 11.1
2014-Dec-19 22:40 017 12 gusting 17 11.1
2014-Dec-19 22:35 068 8 gusting 13 11.1
2014-Dec-19 22:30 053 7 gusting 13 11.7
2014-Dec-19 22:25 034 6 gusting 16 11.7
2014-Dec-19 22:20 015 11 gusting 16 11.7
2014-Dec-19 22:15 015 9 gusting 16 11.7
2014-Dec-19 22:10 030 10 gusting 14 11.7
2014-Dec-19 22:05 005 6 gusting 12 11.7
2014-Dec-19 22:00 028 8 gusting 12 11.7
2014-Dec-19 21:55 012 6 gusting 11 11.7
2014-Dec-19 21:50 030 6 gusting 10 11.7
2014-Dec-19 21:45 014 6 gusting 9 11.7
2014-Dec-19 21:40 038 6 gusting 13 11.7
2014-Dec-19 21:35 045 7 gusting 16 11.7
2014-Dec-19 21:30 043 6 gusting 16 11.7
2014-Dec-19 21:25 055 6 gusting 15 11.7
2014-Dec-19 21:20 079 9 gusting 15 11.7
2014-Dec-19 21:15 017 10 gusting 15 11.7
2014-Dec-19 21:10 038 11 gusting 15 11.7
2014-Dec-19 21:05 005 8 gusting 13 11.7
2014-Dec-19 21:00 021 6 gusting 13 11.7
2014-Dec-19 20:55 017 7 gusting 13 11.7
2014-Dec-19 20:50 025 6 gusting 12 11.7
2014-Dec-19 20:45 022 7 gusting 16 11.7
2014-Dec-19 20:40 016 10 gusting 16 11.7
2014-Dec-19 20:35 035 6 gusting 10 11.7
2014-Dec-19 20:30 047 5 gusting 8 11.7
2014-Dec-19 20:25 051 4 gusting 12 11.7
2014-Dec-19 20:20 040 6 gusting 15 11.7
2014-Dec-19 20:15 016 9 gusting 15 11.7
2014-Dec-19 20:10 033 4 gusting 14 11.7
2014-Dec-19 20:05 027 8 gusting 14 11.7
2014-Dec-19 20:00 024 4 gusting 10 11.7
2014-Dec-19 19:55 024 7 gusting 10 11.7
2014-Dec-19 19:50 013 6 gusting 10 11.7
2014-Dec-19 19:45 023 6 gusting 12 11.7
2014-Dec-19 19:40 038 7 gusting 12 11.7
2014-Dec-19 19:35 033 7 gusting 13 11.7
2014-Dec-19 19:30 031 8 gusting 13 11.7
2014-Dec-19 19:25 014 8 gusting 14 11.7
2014-Dec-19 19:20 030 6 gusting 16 11.7
2014-Dec-19 19:15 030 9 gusting 16 11.7
2014-Dec-19 19:10 052 8 gusting 13 11.7
2014-Dec-19 19:05 005 9 gusting 12 11.7
2014-Dec-19 19:00 022 7 gusting 12 11.7
2014-Dec-19 18:55 009 6 gusting 12 11.7
2014-Dec-19 18:50 042 6 gusting 15 11.7
2014-Dec-19 18:40 013 7 gusting 15 11.7
2014-Dec-19 18:35 023 8 gusting 15 11.7
2014-Dec-19 18:30 029 6 gusting 12 11.7
2014-Dec-19 18:25 049 7 gusting 15 11.7
2014-Dec-19 18:20 032 11 gusting 16 11.7
2014-Dec-19 18:15 017 12 gusting 16 11.7
2014-Dec-19 18:10 025 9 gusting 16 11.1
2014-Dec-19 18:05 032 8 gusting 13 11.1
2014-Dec-19 18:00 030 8 gusting 14 11.1
2014-Dec-19 17:55 024 6 gusting 13 11.1
2014-Dec-19 17:50 031 9 gusting 13 11.1
2014-Dec-19 17:45 023 9 gusting 13 11.1
2014-Dec-19 17:40 053 6 gusting 10 10.6
2014-Dec-19 17:35 047 6 gusting 12 11.1
2014-Dec-19 17:30 012 7 gusting 12 11.1
2014-Dec-19 17:25 028 6 gusting 13 11.1
2014-Dec-19 17:20 030 7 gusting 16 11.1
2014-Dec-19 17:15 040 9 gusting 16 11.1
2014-Dec-19 17:10 009 9 gusting 14 11.1
2014-Dec-19 17:05 024 7 gusting 13 11.1
2014-Dec-19 17:00 039 8 gusting 13 11.7
2014-Dec-19 16:55 016 9 gusting 16 11.7
2014-Dec-19 16:50 018 10 gusting 16 11.7
2014-Dec-19 16:45 025 7 gusting 14 12.2
2014-Dec-19 16:40 026 10 gusting 15 12.2
2014-Dec-19 16:35 038 9 gusting 15 12.2
2014-Dec-19 16:30 017 9 gusting 15 12.2
2014-Dec-19 16:25 036 9 gusting 16 12.8
2014-Dec-19 16:20 051 12 gusting 16 12.2
2014-Dec-19 16:15 019 7 gusting 14 12.2
2014-Dec-19 16:10 028 10 gusting 19 12.2
2014-Dec-19 16:05 028 11 gusting 19 12.2
2014-Dec-19 16:00 021 10 gusting 15 12.2
2014-Dec-19 15:55 031 9 gusting 17 12.2
2014-Dec-19 15:50 016 11 gusting 17 12.2
2014-Dec-19 15:45 026 9 gusting 22 12.8
2014-Dec-19 15:40 029 14 gusting 22 12.2
2014-Dec-19 15:35 027 14 gusting 20 12.2
2014-Dec-19 15:30 038 12 gusting 22 12.8
2014-Dec-19 15:25 030 13 gusting 22 12.8
2014-Dec-19 15:20 042 12 gusting 19 12.8
2014-Dec-19 15:15 027 10 gusting 19 12.8
2014-Dec-19 15:10 026 12 gusting 19 12.8
2014-Dec-19 15:05 360 11 gusting 15 12.8
2014-Dec-19 15:00 034 11 gusting 18 12.8
2014-Dec-19 14:55 026 11 gusting 19 12.8
2014-Dec-19 14:50 018 13 gusting 19 12.8
2014-Dec-19 14:45 038 14 gusting 19 12.8
2014-Dec-19 14:40 031 9 gusting 15 12.8
2014-Dec-19 14:35 011 10 gusting 15 13.3
2014-Dec-19 14:30 042 8 gusting 15 13.3
2014-Dec-19 14:25 016 9 gusting 19 13.3
2014-Dec-19 14:20 063 11 gusting 19 13.3
2014-Dec-19 14:15 027 12 gusting 19 13.3
2014-Dec-19 14:10 036 9 gusting 19 13.3
2014-Dec-19 14:05 022 13 gusting 20 13.3
2014-Dec-19 14:00 035 13 gusting 20 13.3
2014-Dec-19 13:55 005 8 gusting 17 12.8
2014-Dec-19 13:50 018 8 gusting 19 12.2
2014-Dec-19 13:45 030 12 gusting 19 12.2
2014-Dec-19 13:40 044 11 gusting 18 12.2
2014-Dec-19 13:35 022 13 gusting 19 12.2
2014-Dec-19 13:30 055 10 gusting 21 12.2
2014-Dec-19 13:25 021 13 gusting 21 11.7
2014-Dec-19 13:20 045 12 gusting 20 12.2
2014-Dec-19 13:15 033 8 gusting 18 11.7
2014-Dec-19 13:10 059 6 gusting 19 11.7
2014-Dec-19 13:05 360 12 gusting 19 11.7
2014-Dec-19 13:00 026 10 gusting 15 11.7
2014-Dec-19 12:55 005 7 gusting 15 11.7
2014-Dec-19 12:50 021 8 gusting 17 11.7
2014-Dec-19 12:45 033 10 gusting 19 11.7
2014-Dec-19 12:40 020 13 gusting 19 11.7
2014-Dec-19 12:35 020 8 gusting 15 11.7
2014-Dec-19 12:30 061 10 gusting 22 11.7
2014-Dec-19 12:25 011 9 gusting 22 11.7
2014-Dec-19 12:20 054 8 gusting 19 11.7
2014-Dec-19 12:15 005 10 gusting 20 11.7
2014-Dec-19 12:10 028 11 gusting 20 11.7
2014-Dec-19 12:05 031 12 gusting 19 11.7
2014-Dec-19 12:00 059 12 gusting 19 11.7
2014-Dec-19 11:55 039 13 gusting 19 11.7
2014-Dec-19 11:50 022 13 gusting 19 11.7
2014-Dec-19 11:45 029 12 gusting 18 11.7
2014-Dec-19 11:40 005 9 gusting 18 11.7
2014-Dec-19 11:35 028 8 gusting 15 11.7
2014-Dec-19 11:30 035 9 gusting 13 11.7
2014-Dec-19 11:25 031 6 gusting 12 11.7
2014-Dec-19 11:20 055 7 gusting 14 11.1
2014-Dec-19 11:15 038 7 gusting 14 11.1
2014-Dec-19 11:10 072 7 gusting 14 11.1
2014-Dec-19 11:05 068 5 gusting 17 11.7
2014-Dec-19 11:00 005 8 gusting 17 11.7
2014-Dec-19 10:55 016 6 gusting 13 11.7
2014-Dec-19 10:50 064 6 gusting 14 11.1
2014-Dec-19 10:45 072 7 gusting 14 11.1
2014-Dec-19 10:40 019 6 gusting 14 11.1
2014-Dec-19 10:35 071 6 gusting 14 10.6
2014-Dec-19 10:30 046 8 gusting 16 10.6
2014-Dec-19 10:25 054 11 gusting 16 10.6
2014-Dec-19 10:20 061 6 gusting 16 10.6
2014-Dec-19 10:15 063 11 gusting 16 10.6
2014-Dec-19 10:10 024 11 gusting 18 10.6
2014-Dec-19 10:05 071 11 gusting 18 10.6
2014-Dec-19 10:00 013 8 gusting 14 10.6
2014-Dec-19 09:55 051 8 gusting 14 10.0
2014-Dec-19 09:50 070 6 gusting 10 10.0
2014-Dec-19 09:45 055 5 gusting 13 10.0
2014-Dec-19 09:40 072 10 gusting 13 10.0
2014-Dec-19 09:35 088 9 gusting 13 10.0
2014-Dec-19 09:30 013 8 gusting 12 10.0
2014-Dec-19 09:25 053 7 gusting 12 10.0
2014-Dec-19 09:20 065 6 gusting 11 9.4
2014-Dec-19 09:15 064 7 gusting 12 9.4
2014-Dec-19 09:10 059 6 gusting 11 9.4
2014-Dec-19 09:05 061 8 gusting 11 9.4
2014-Dec-19 09:00 061 7 gusting 10 8.9